CD170 EDNY-EDNY

Flight info

Callsign CD170
Flight time 0h 12m
Altitude
Route /
Aircraft C402/L-V/N

Departure

Time 2026-04-28 18:48
Airport Bodensee Airport Friedrichshafen (EDNY)

Arrival

Time 2026-04-28 19:01
Airport Bodensee Airport Friedrichshafen (EDNY)
Time Latitude Longitude Altitude Speed Heading
2026-04-28 18:44 47.66766 9.50901 1351 ft 0 kts 330°
2026-04-28 18:44 47.66767 9.50897 1350 ft 2 kts 271°
2026-04-28 18:44 47.66756 9.50892 1350 ft 8 kts 180°
2026-04-28 18:45 47.66684 9.50761 1350 ft 23 kts 235°
2026-04-28 18:45 47.66693 9.50689 1346 ft 9 kts 14°
2026-04-28 18:45 47.66771 9.50751 1348 ft 18 kts 33°
2026-04-28 18:45 47.66856 9.50910 1346 ft 19 kts 55°
2026-04-28 18:46 47.66934 9.51107 1349 ft 25 kts 59°
2026-04-28 18:46 47.67013 9.51313 1354 ft 14 kts 64°
2026-04-28 18:46 47.67065 9.51311 1353 ft 9 kts 322°
2026-04-28 18:46 47.67084 9.51288 1354 ft 0 kts 321°
2026-04-28 18:47 47.67121 9.51245 1355 ft 11 kts 326°
2026-04-28 18:47 47.67243 9.51405 1359 ft 50 kts 55°
2026-04-28 18:47 47.67506 9.52076 1384 ft 94 kts 59°
2026-04-28 18:48 47.67881 9.53026 1501 ft 119 kts 50°
2026-04-28 18:48 47.68615 9.53409 1894 ft 125 kts 345°
2026-04-28 18:48 47.69097 9.52254 2053 ft 154 kts 278°
2026-04-28 18:48 47.68760 9.50675 2161 ft 168 kts 239°
2026-04-28 18:49 47.68134 9.49143 2291 ft 179 kts 242°
2026-04-28 18:49 47.67925 9.48611 2429 ft 175 kts 241°
2026-04-28 18:49 47.66790 9.45967 2571 ft 191 kts 240°
2026-04-28 18:49 47.66090 9.44281 2577 ft 192 kts 242°
2026-04-28 18:50 47.65362 9.42595 2577 ft 196 kts 237°
2026-04-28 18:50 47.64638 9.40874 2584 ft 198 kts 240°
2026-04-28 18:50 47.63911 9.39150 2579 ft 200 kts 238°
2026-04-28 18:50 47.63154 9.37427 2525 ft 199 kts 230°
2026-04-28 18:51 47.61979 9.36442 2515 ft 196 kts 190°
2026-04-28 18:51 47.60670 9.36752 2516 ft 192 kts 152°
2026-04-28 18:51 47.59806 9.38175 2558 ft 187 kts 112°
2026-04-28 18:51 47.59750 9.40049 2559 ft 185 kts 72°
2026-04-28 18:52 47.60517 9.41524 2551 ft 184 kts 34°
2026-04-28 18:52 47.61616 9.42232 2445 ft 160 kts 18°
2026-04-28 18:52 47.62626 9.42602 2357 ft 138 kts 21°
2026-04-28 18:52 47.63392 9.43252 2195 ft 123 kts 43°
2026-04-28 18:53 47.64021 9.44101 1976 ft 119 kts 44°
2026-04-28 18:53 47.64580 9.45023 1807 ft 122 kts 50°
2026-04-28 18:53 47.65089 9.46000 1757 ft 120 kts 54°
2026-04-28 18:53 47.65524 9.47000 1665 ft 107 kts 58°
2026-04-28 18:54 47.65851 9.47862 1622 ft 89 kts 59°
2026-04-28 18:54 47.66184 9.48697 1581 ft 96 kts 59°
2026-04-28 18:54 47.66479 9.49509 1467 ft 86 kts 58°
2026-04-28 18:54 47.66798 9.50285 1370 ft 90 kts 60°
2026-04-28 18:55 47.67053 9.50947 1352 ft 59 kts 59°
2026-04-28 18:55 47.67191 9.51284 1357 ft 69 kts 62°
2026-04-28 18:55 47.67679 9.52445 1494 ft 117 kts 41°
2026-04-28 18:55 47.68463 9.52618 1824 ft 129 kts 334°
2026-04-28 18:56 47.68760 9.51339 2083 ft 151 kts 255°
2026-04-28 18:56 47.68237 9.49889 2227 ft 168 kts 241°
2026-04-28 18:56 47.67603 9.48379 2409 ft 176 kts 238°
2026-04-28 18:56 47.66899 9.46876 2640 ft 180 kts 235°
2026-04-28 18:57 47.66195 9.45306 2786 ft 182 kts 243°
2026-04-28 18:57 47.65581 9.43634 2895 ft 186 kts 240°
2026-04-28 18:57 47.64968 9.41992 3183 ft 179 kts 241°
2026-04-28 18:57 47.64320 9.40450 3449 ft 177 kts 220°
2026-04-28 18:58 47.63152 9.39968 3447 ft 181 kts 165°
2026-04-28 18:58 47.62386 9.41183 3608 ft 167 kts 94°
2026-04-28 18:58 47.62908 9.42576 3040 ft 166 kts 36°
2026-04-28 18:58 47.63816 9.43552 2692 ft 146 kts 41°
2026-04-28 18:59 47.64470 9.44513 2377 ft 122 kts 51°
2026-04-28 18:59 47.64931 9.45486 2085 ft 109 kts 58°
2026-04-28 18:59 47.65290 9.46444 1907 ft 105 kts 60°
2026-04-28 18:59 47.65671 9.47398 1709 ft 109 kts 58°
2026-04-28 19:00 47.66033 9.48325 1592 ft 92 kts 57°
2026-04-28 19:00 47.66335 9.49090 1473 ft 85 kts 58°
2026-04-28 19:00 47.66523 9.49595 1455 ft 84 kts 55°
2026-04-28 19:00 47.66906 9.50579 1351 ft 72 kts 59°
2026-04-28 19:01 47.67083 9.51006 1351 ft 26 kts 65°
2026-04-28 19:01 47.67143 9.51195 1356 ft 17 kts 102°
2026-04-28 19:01 47.67108 9.51261 1355 ft 0 kts 140°
2026-04-28 19:02 47.67104 9.51267 1355 ft 4 kts 138°
2026-04-28 19:02 47.67042 9.51345 1354 ft 5 kts 143°
2026-04-28 19:02 47.67041 9.51346 1354 ft 0 kts 144°
2026-04-28 19:03 47.67030 9.51353 1354 ft 5 kts 187°
2026-04-28 19:03 47.67013 9.51342 1354 ft 10 kts 101°
2026-04-28 19:03 47.66972 9.51368 1355 ft 7 kts 307°
2026-04-28 19:03 47.66973 9.51366 1355 ft 0 kts 324°